DW0465 Weather Reports


Display with metric or nautical units.
time (UTC)temp
F
wind
direction
speed
MPH
gust
MPH
rain 1hr
in
rain 24hr
in
rain mn
in
humidity
%
barometer
mb
20260510203051 68 118 0.0 2.0 0.00 0.00 0.00 28 1014.8
20260510201548 68 140 0.0 5.0 0.00 0.00 0.00 28 1015.0
20260510200056 68 130 0.0 5.0 0.00 0.00 0.00 28 1015.2
20260510194600 67 130 0.0 10.0 0.00 0.00 0.00 29 1015.4
20260510193042 66 128 0.0 2.0 0.00 0.00 0.00 29 1015.7
20260510191539 67 123 0.0 3.0 0.00 0.00 0.00 29 1016.1
20260510190046 66 206 0.0 2.0 0.00 0.00 0.00 28 1016.5
20260510184531 66 158 0.0 4.0 0.00 0.04 0.00 29 1016.6
20260510183028 65 191 0.0 5.0 0.00 0.04 0.00 30 1016.8
20260510181525 65 121 0.0 3.0 0.00 0.04 0.00 30 1016.9
20260510180021 63 180 0.0 3.0 0.00 0.04 0.00 31 1017.3
20260510174517 62 140 0.0 4.0 0.00 0.04 0.00 33 1017.5
20260510173016 62 162 0.0 3.0 0.00 0.04 0.00 33 1017.7
20260510171512 62 161 0.0 2.0 0.00 0.04 0.00 34 1017.7
20260510170008 61 130 0.0 3.0 0.00 0.04 0.00 32 1017.8
20260510164503 61 140 0.0 1.0 0.00 0.04 0.00 33 1018.0
20260510163059 60 150 0.0 1.0 0.00 0.04 0.00 33 1018.2
20260510161557 60 115 0.0 0.0 0.00 0.04 0.00 36 1018.3
20260510160054 60 155 0.0 0.0 0.00 0.04 0.00 34 1018.5
20260510154554 59 124 0.0 0.0 0.00 0.04 0.00 35 1018.6
20260510153049 59 124 0.0 0.0 0.00 0.04 0.00 35 1018.6
20260510151549 56 202 0.0 0.0 0.00 0.04 0.00 47 1018.7
20260510150048 55 201 0.0 0.0 0.00 0.04 0.00 49 1018.8
20260510144548 52 202 0.0 0.0 0.00 0.04 0.00 53 1019.0
20260510143030 50 194 0.0 0.0 0.00 0.04 0.00 56 1019.0
20260510141526 48 191 0.0 0.0 0.00 0.04 0.00 59 1019.2
20260510140020 46 209 0.0 0.0 0.00 0.04 0.00 62 1019.2
20260510134517 44 172 0.0 0.0 0.00 0.04 0.00 66 1019.4
20260510133012 43 185 0.0 0.0 0.00 0.04 0.00 69 1019.4
20260510131508 40 199 0.0 0.0 0.00 0.04 0.00 74 1019.5
20260510130006 38 207 0.0 0.0 0.00 0.04 0.00 78 1019.4
20260510124504 37 186 0.0 0.0 0.00 0.04 0.00 81 1019.4
20260510123059 36 184 0.0 0.0 0.00 0.04 0.00 84 1019.3
20260510121602 36 184 0.0 0.0 0.00 0.04 0.00 83 1019.2
20260510120054 36 184 0.0 0.0 0.00 0.04 0.00 81 1019.0
20260510114608 36 198 0.0 0.0 0.00 0.05 0.00 81 1019.1
20260510113056 37 198 0.0 0.0 0.00 0.05 0.00 80 1019.0
20260510111548 37 186 0.0 0.0 0.00 0.05 0.00 80 1018.9
20260510110052 37 190 0.0 0.0 0.00 0.05 0.00 80 1018.9
20260510104555 38 196 0.0 0.0 0.00 0.05 0.00 81 1018.8
20260510103045 37 182 0.0 0.0 0.00 0.05 0.00 81 1018.8
20260510101543 37 208 0.0 0.0 0.00 0.05 0.00 81 1018.6
20260510100056 38 202 0.0 0.0 0.00 0.05 0.00 81 1018.5
20260510094550 38 199 0.0 0.0 0.00 0.08 0.00 81 1018.4
20260510093037 38 208 0.0 0.0 0.00 0.08 0.00 81 1018.4
20260510091535 38 185 0.0 0.0 0.00 0.08 0.00 80 1018.2
20260510090033 38 214 0.0 0.0 0.00 0.08 0.00 79 1018.3
20260510084532 39 202 0.0 0.0 0.00 0.08 0.00 80 1018.3
20260510083030 39 194 0.0 0.0 0.00 0.08 0.00 80 1018.2
20260510081531 39 199 0.0 0.0 0.00 0.08 0.00 80 1018.2
20260510080028 39 164 0.0 0.0 0.00 0.08 0.00 80 1018.1
20260510074534 40 219 0.0 0.0 0.00 0.08 0.00 80 1018.1
20260510073023 40 219 0.0 0.0 0.00 0.08 0.00 79 1018.2
20260510071527 41 217 0.0 1.0 0.00 0.08 0.00 78 1018.1
20260510070020 41 209 0.0 0.0 0.00 0.08 0.00 78 1018.1
20260510064520 41 195 0.0 0.0 0.00 0.08 0.00 78 1018.0
20260510063017 42 197 0.0 0.0 0.00 0.08 0.00 78 1017.9
20260510061516 42 208 0.0 0.0 0.00 0.08 0.00 78 1017.7
20260510060011 42 206 0.0 0.0 0.00 0.08 0.00 77 1017.5
20260510054510 42 200 0.0 0.0 0.00 0.08 0.08 76 1017.4
20260510053008 43 197 0.0 0.0 0.00 0.08 0.08 77 1017.2
20260510051508 43 188 0.0 0.0 0.00 0.08 0.08 76 1017.4
20260510050006 44 279 0.0 0.0 0.00 0.08 0.08 75 1017.4
20260510044507 45 279 0.0 0.0 0.00 0.08 0.08 74 1017.3
20260510043003 45 333 0.0 0.0 0.00 0.08 0.08 74 1017.1
20260510041600 47 196 0.0 0.0 0.00 0.08 0.08 69 1016.7
20260510040057 48 200 0.0 0.0 0.00 0.08 0.08 66 1016.5
20260510034555 50 209 0.0 0.0 0.00 0.08 0.08 64 1016.3
20260510033120 51 169 0.0 0.0 0.00 0.08 0.08 63 1016.1
20260510031606 51 55 0.0 0.0 0.00 0.08 0.08 63 1015.9
20260510030050 51 55 0.0 0.0 0.00 0.08 0.08 59 1015.6
20260510024548 52 55 0.0 0.0 0.00 0.08 0.08 60 1015.3
20260510023044 52 55 0.0 0.0 0.00 0.08 0.08 55 1015.0
20260510021544 53 55 0.0 0.0 0.00 0.08 0.08 54 1014.7
20260510020043 54 41 0.0 0.0 0.00 0.08 0.08 50 1014.3
20260510014540 56 11 0.0 1.0 0.00 0.08 0.08 47 1014.2
20260510013041 55 43 0.0 0.0 0.00 0.08 0.08 48 1014.1
20260510011537 55 54 0.0 1.0 0.00 0.08 0.08 51 1013.8
20260510010035 55 52 0.0 1.0 0.00 0.08 0.08 50 1013.6
20260510004534 55 59 0.0 2.0 0.00 0.08 0.08 51 1013.6
20260510003044 55 61 0.0 3.0 0.00 0.08 0.08 49 1013.4
20260510001539 56 36 0.0 5.0 0.00 0.08 0.08 46 1013.2
20260510000030 56 11 0.0 3.0 0.00 0.08 0.08 47 1012.9
20260509234534 57 84 0.0 6.0 0.00 0.08 0.08 43 1012.6
20260509233026 57 98 0.0 2.0 0.00 0.08 0.08 44 1012.4
20260509231528 58 46 1.0 8.0 0.00 0.08 0.08 41 1012.2
20260509230027 59 101 0.0 5.0 0.00 0.08 0.08 38 1012.0
20260509224524 60 50 0.0 5.0 0.00 0.08 0.08 37 1011.8
20260509223024 59 30 0.0 5.0 0.00 0.08 0.08 38 1011.8
20260509221526 60 64 0.0 3.0 0.00 0.08 0.08 36 1011.6
20260509220024 59 47 0.0 4.0 0.00 0.08 0.08 37 1011.5
20260509214533 59 46 0.0 6.0 0.00 0.08 0.08 39 1011.5
20260509213017 58 42 0.0 1.0 0.00 0.08 0.08 41 1011.6
20260509211512 56 323 0.0 1.0 0.00 0.08 0.08 49 1011.6
20260509210012 56 312 0.0 0.0 0.00 0.08 0.08 45 1011.7
20260509204513 55 346 0.0 0.0 0.00 0.08 0.08 50 1011.7